Hourly Data Report for October 19, 2016

All times are specified in Local Standard Time (LST). Add 1 hour to adjust for Daylight Saving Time where and when it is observed.

KITCHENER/WATERLOO
ONTARIO

43°27'39.000" N
80°22'43.000" W
321.60 m
6144239
71368
YKF

Download Data

Hourly Data (October 2016)
Hourly Data Report for October 19, 2016
Temp Definition
°C
Dew Point Temp Definition
°C
Rel Hum Definition
%
Wind Dir Definition
10's deg

Wind Spd Definition
km/h
Visibility Definition
km
Stn Press Definition
kPa
Hmdx Definition


Wind Chill Definition


Weather Definition


TIME
00:00 Legend Double Dagger 10.8 10.4 97 25 8 12.9 97.39     LegendNANA
01:00 Legend Double Dagger 9.8 9.4 97 29 5 16.1 97.47     LegendNANA
02:00 Legend Double Dagger 10.1 9.8 98 28 9 16.1 97.57     LegendNANA
03:00 Legend Double Dagger 10.3 9.9 97 28 8 16.1 97.64     LegendNANA
04:00 Legend Double Dagger 9.9 9.5 97 26 8 16.1 97.71     LegendNANA
05:00 Legend Double Dagger 9.4 9.0 97 27 8 4.8 97.78     Fog
06:00 Legend Double Dagger 8.0 7.7 98 20 4 1.0 97.86     Fog
07:00 Legend Double Dagger 7.5 7.2 98 22 5 0.2 97.93     Fog
08:00 Legend Double Dagger 10.4 10.1 98 23 5 16.1 98.04     LegendNANA
09:00 Legend Double Dagger 12.8 11.9 94 19 8 16.1 98.10     LegendNANA
10:00 Legend Double Dagger 15.1 11.4 79 27 11 16.1 98.10     LegendNANA
11:00 Legend Double Dagger 16.4 10.5 68 25 8 16.1 98.14     LegendNANA
12:00 Legend Double Dagger 17.6 10.7 64 23 11 16.1 98.16     LegendNANA
13:00 Legend Double Dagger 18.5 9.5 55 30 9 16.1 98.11     LegendNANA
14:00 Legend Double Dagger 19.2 8.6 50 25 11 16.1 98.11     LegendNANA
15:00 Legend Double Dagger 19.7 7.2 44 28 15 16.1 98.13     LegendNANA
16:00 Legend Double Dagger 18.9 8.3 50 28 8 16.1 98.13     LegendNANA
17:00 Legend Double Dagger 17.2 8.5 56 23 8 16.1 98.11     LegendNANA
18:00 Legend Double Dagger 14.5 8.5 67 16 5 16.1 98.11     LegendNANA
19:00 Legend Double Dagger 12.6 9.8 83   0 16.1 98.23     LegendNANA
20:00 Legend Double Dagger 14.2 10.0 75 LegendMM 4 16.1 98.27     LegendNANA
21:00 Legend Double Dagger 11.8 9.7 87   0 16.1 98.23     LegendNANA
22:00 Legend Double Dagger 11.5 10.4 93 13 4 16.1 98.22     LegendNANA
23:00 Legend Double Dagger 9.4 8.8 96 7 8 16.1 98.16     LegendNANA

Notes on Data Quality.

Legend

  • E = Estimated
  • M = Missing
  • NA = Not Available
  • ‡ = Partner data that is not subject to review by the National Climate Archives
Date modified: